Home > Weather > Nipigon > Past weeks

Flag for Canada Past Weather in Nipigon, Ontario, Canada — Yesterday and Last 2 Weeks

Now
54 °F

Cool.


Feels Like: 54 °F
Forecast: 46 / 75 °F
Wind: 3 mph from Southwest

Location: Katatota Island

Current Time: Jun 29, 2016 at 7:07:03 AM

Latest Report: Jun 29, 2016 at 5:00 AM


Visibility: N/A

Pressure: 30.01 "Hg

Humidity: 86%

Dew Point: 50 °F

Location of NipigonLocation

Past Weather in Nipigon — Graph

°F

Nipigon Temperature Yesterday

Maximum temperature yesterday: 67 °F (at 7:00 PM)
Minimum temperature yesterday: 48 °F (at 5:00 AM)
Average temperature yesterday: 58 °F

High & Low Weather Summary for the Past Weeks

 TemperatureHumidityPressure
High77 °F (Jun 18, 4:00 PM)100% (Jun 22, 1:00 AM)30.23 "Hg (Jun 22, 1:00 AM)
Low46 °F (Jun 22, 1:00 AM)44% (Jun 18, 4:00 PM)29.56 "Hg (Jun 20, 1:00 AM)
Average58 °F79%29.93 "Hg
* Reported Jun 14 5:00 AM — Jun 29 5:00 AM, Nipigon, Weather by CustomWeather, © 2016

Note: Actual official high and low records may vary slightly from our data, if they occured in-between our weather recording intervals... More about our weather records

Advertising

Nipigon Weather History for the Previous 24 Hours

Scroll right to see more
 ConditionsComfort  
Time TempWeatherWind HumidityBarometerVisibility
5:00 AM
Wed, Jun 29
54 °FCool.3 mph86%30.01 "HgN/A
4:00 AM54 °FCool.6 mph83%30.02 "HgN/A
3:00 AM54 °FCool.5 mph87%30.02 "HgN/A
2:00 AM56 °FCool.9 mph81%30.02 "HgN/A
1:00 AM56 °FCool.3 mph85%30.04 "HgN/A
12:00 AM56 °FCool.2 mph83%30.06 "HgN/A
11:00 PM
Tue, Jun 28
58 °FCool.2 mph80%30.07 "HgN/A
10:00 PM61 °FCool.8 mph70%30.06 "HgN/A
9:00 PM65 °FMild.8 mph64%30.07 "HgN/A
8:00 PM66 °FMild.5 mph60%30.08 "HgN/A
7:00 PM67 °FMild.6 mph58%30.09 "HgN/A
6:00 PM66 °FMild.5 mph65%30.11 "HgN/A
5:00 PM64 °FMild.7 mph66%30.15 "HgN/A
4:00 PM65 °FMild.9 mph68%30.16 "HgN/A
3:00 PM62 °FCool.9 mph70%30.18 "HgN/A
2:00 PM62 °FCool.5 mph72%30.20 "HgN/A
1:00 PM60 °FCool.3 mph66%30.22 "HgN/A
12:00 PM59 °FCool.5 mph73%30.23 "HgN/A
11:00 AM58 °FCool.6 mph76%30.22 "HgN/A
10:00 AM55 °FCool.3 mph82%30.23 "HgN/A
9:00 AM55 °FCool.2 mph84%30.23 "HgN/A
8:00 AM53 °FCool.2 mph87%30.23 "HgN/A
7:00 AM52 °FCool.3 mph87%30.23 "HgN/A
Weather by CustomWeather, © 2016

See weather overviewHow to use our weather pages